Time,TemperatureF,DewpointF,PressureIn,WindDirection,WindDirectionDegrees,WindSpeedMPH,WindSpeedGustMPH,Humidity,HourlyPrecipIn,Conditions,Clouds,dailyrainin,SoftwareType,DateUTC
2013-01-10 00:00:00,62.5,61.6,30.24,NW,307,0.0,3.0,97,0.00,,,0.00,WeatherCatV1.02B3,2013-01-10 06:00:00,
2013-01-10 00:05:00,62.5,61.6,30.24,WNW,299,0.0,5.0,97,0.00,,,0.01,WeatherCatV1.02B3,2013-01-10 06:05:00,
2013-01-10 00:10:00,62.7,61.8,30.23,NW,320,0.0,8.0,97,0.00,,,0.01,WeatherCatV1.02B3,2013-01-10 06:10:00,
2013-01-10 00:15:00,62.9,62.0,30.23,NNW,348,0.0,5.0,97,0.00,,,0.01,WeatherCatV1.02B3,2013-01-10 06:15:00,
2013-01-10 00:20:00,62.9,62.0,30.23,WNW,296,1.0,3.0,97,0.00,,,0.01,WeatherCatV1.02B3,2013-01-10 06:20:00,
2013-01-10 00:25:00,62.9,62.0,30.23,NW,313,0.0,0.0,97,0.00,,,0.01,WeatherCatV1.02B3,2013-01-10 06:25:00,
2013-01-10 00:30:00,63.1,62.2,30.23,WNW,296,2.0,4.0,97,0.00,,,0.01,WeatherCatV1.02B3,2013-01-10 06:30:00,
2013-01-10 00:35:00,63.1,62.2,30.23,NW,306,2.0,5.0,97,0.00,,,0.01,WeatherCatV1.02B3,2013-01-10 06:35:00,
2013-01-10 00:40:00,63.2,62.3,30.23,WNW,302,0.0,6.0,97,0.00,,,0.01,WeatherCatV1.02B3,2013-01-10 06:40:00,
2013-01-10 00:45:00,63.3,62.4,30.23,NW,316,4.0,4.0,97,0.00,,,0.01,WeatherCatV1.02B3,2013-01-10 06:45:00,
2013-01-10 00:50:00,63.3,62.4,30.23,West,272,0.0,4.0,97,0.00,,,0.01,WeatherCatV1.02B3,2013-01-10 06:50:00,
2013-01-10 00:55:00,63.4,62.5,30.23,WSW,251,1.0,7.0,97,0.00,,,0.01,WeatherCatV1.02B3,2013-01-10 06:55:00,
2013-01-10 01:00:00,63.4,62.5,30.23,WNW,291,0.0,4.0,97,0.00,,,0.01,WeatherCatV1.02B3,2013-01-10 07:00:00,
2013-01-10 01:05:00,63.4,62.5,30.22,SW,229,1.0,3.0,97,0.00,,,0.01,WeatherCatV1.02B3,2013-01-10 07:05:00,
2013-01-10 01:10:00,63.5,62.6,30.22,West,267,0.0,6.0,97,0.00,,,0.01,WeatherCatV1.02B3,2013-01-10 07:10:00,
2013-01-10 01:15:00,63.5,62.6,30.22,NW,310,0.0,4.0,97,0.00,,,0.01,WeatherCatV1.02B3,2013-01-10 07:15:00,
2013-01-10 01:20:00,63.6,62.7,30.21,WSW,254,1.0,3.0,97,0.00,,,0.01,WeatherCatV1.02B3,2013-01-10 07:20:00,
2013-01-10 01:25:00,63.6,62.7,30.21,WNW,300,0.0,8.0,97,0.00,,,0.01,WeatherCatV1.02B3,2013-01-10 07:25:00,
2013-01-10 01:30:00,63.6,62.7,30.22,WNW,302,0.0,0.0,97,0.00,,,0.01,WeatherCatV1.02B3,2013-01-10 07:30:00,
2013-01-10 01:35:00,63.6,62.7,30.22,NW,317,0.0,1.0,97,0.00,,,0.01,WeatherCatV1.02B3,2013-01-10 07:35:00,
2013-01-10 01:40:00,63.6,62.7,30.22,WNW,303,2.0,5.0,97,0.00,,,0.01,WeatherCatV1.02B3,2013-01-10 07:40:00,
2013-01-10 01:45:00,63.6,62.7,30.22,NW,304,1.0,1.0,97,0.00,,,0.01,WeatherCatV1.02B3,2013-01-10 07:45:00,
2013-01-10 01:50:00,63.8,62.9,30.21,West,275,3.0,3.0,97,0.00,,,0.01,WeatherCatV1.02B3,2013-01-10 07:50:00,
2013-01-10 01:55:00,63.8,62.9,30.21,SW,220,0.0,3.0,97,0.00,,,0.01,WeatherCatV1.02B3,2013-01-10 07:55:00,
2013-01-10 02:00:00,63.8,62.9,30.21,NW,310,0.0,6.0,97,0.00,,,0.01,WeatherCatV1.02B3,2013-01-10 08:00:00,
2013-01-10 02:05:00,63.8,62.9,30.21,WNW,290,0.0,6.0,97,0.00,,,0.01,WeatherCatV1.02B3,2013-01-10 08:05:00,
2013-01-10 02:10:00,63.9,63.0,30.21,SW,220,0.0,6.0,97,0.00,,,0.01,WeatherCatV1.02B3,2013-01-10 08:10:00,
2013-01-10 02:15:00,63.9,63.0,30.22,NW,306,0.0,2.0,97,0.00,,,0.01,WeatherCatV1.02B3,2013-01-10 08:15:00,
2013-01-10 02:20:00,64.0,63.1,30.21,NW,316,0.0,1.0,97,0.00,,,0.01,WeatherCatV1.02B3,2013-01-10 08:20:00,
2013-01-10 02:25:00,64.0,63.1,30.21,NNW,348,0.0,1.0,97,0.00,,,0.01,WeatherCatV1.02B3,2013-01-10 08:25:00,
2013-01-10 02:30:00,64.1,63.2,30.21,West,277,0.0,4.0,97,0.00,,,0.01,WeatherCatV1.02B3,2013-01-10 08:30:00,
2013-01-10 02:35:00,64.2,63.3,30.21,SSE,159,1.0,1.0,97,0.00,,,0.01,WeatherCatV1.02B3,2013-01-10 08:35:00,
2013-01-10 02:40:00,64.3,63.4,30.20,NW,306,0.0,3.0,97,0.00,,,0.01,WeatherCatV1.02B3,2013-01-10 08:40:00,
2013-01-10 02:45:00,64.4,63.5,30.20,WNW,288,0.0,1.0,97,0.00,,,0.01,WeatherCatV1.02B3,2013-01-10 08:45:00,
2013-01-10 02:50:00,64.4,63.5,30.20,NW,317,0.0,0.0,97,0.00,,,0.01,WeatherCatV1.02B3,2013-01-10 08:50:00,
2013-01-10 02:55:00,64.4,63.5,30.20,NW,317,0.0,1.0,97,0.00,,,0.01,WeatherCatV1.02B3,2013-01-10 08:55:00,
2013-01-10 03:00:00,64.4,63.5,30.20,WNW,301,2.0,2.0,97,0.00,,,0.01,WeatherCatV1.02B3,2013-01-10 09:00:00,
2013-01-10 03:05:00,64.5,63.6,30.20,NW,316,0.0,5.0,97,0.00,,,0.01,WeatherCatV1.02B3,2013-01-10 09:05:00,
2013-01-10 03:10:00,64.6,63.7,30.20,NW,313,0.0,2.0,97,0.00,,,0.01,WeatherCatV1.02B3,2013-01-10 09:10:00,
2013-01-10 03:15:00,64.7,63.8,30.19,NW,317,0.0,2.0,97,0.00,,,0.01,WeatherCatV1.02B3,2013-01-10 09:15:00,
2013-01-10 03:20:00,64.7,63.8,30.19,WSW,247,4.0,6.0,97,0.00,,,0.01,WeatherCatV1.02B3,2013-01-10 09:20:00,
2013-01-10 03:25:00,64.9,64.0,30.19,West,270,1.0,2.0,97,0.00,,,0.01,WeatherCatV1.02B3,2013-01-10 09:25:00,
2013-01-10 03:30:00,64.8,63.9,30.18,WNW,300,0.0,4.0,97,0.00,,,0.01,WeatherCatV1.02B3,2013-01-10 09:30:00,
2013-01-10 03:35:00,64.9,64.0,30.18,NW,321,0.0,0.0,97,0.00,,,0.01,WeatherCatV1.02B3,2013-01-10 09:35:00,
2013-01-10 03:41:00,64.9,64.0,30.17,NW,311,0.0,3.0,97,0.00,,,0.01,WeatherCatV1.02B3,2013-01-10 09:41:00,
2013-01-10 03:46:00,64.9,64.0,30.17,NW,309,0.0,2.0,97,0.00,,,0.01,WeatherCatV1.02B3,2013-01-10 09:46:00,
2013-01-10 03:51:00,65.0,64.1,30.17,West,260,0.0,1.0,97,0.00,,,0.01,WeatherCatV1.02B3,2013-01-10 09:51:00,
2013-01-10 03:56:00,64.9,64.0,30.17,WNW,292,0.0,2.0,97,0.00,,,0.01,WeatherCatV1.02B3,2013-01-10 09:56:00,
2013-01-10 04:01:00,65.0,64.1,30.17,WNW,300,0.0,6.0,97,0.00,,,0.01,WeatherCatV1.02B3,2013-01-10 10:01:00,
2013-01-10 04:06:00,65.0,64.1,30.17,West,273,0.0,1.0,97,0.00,,,0.01,WeatherCatV1.02B3,2013-01-10 10:06:00,
2013-01-10 04:11:00,65.0,64.1,30.17,WNW,298,0.0,1.0,97,0.00,,,0.01,WeatherCatV1.02B3,2013-01-10 10:11:00,
2013-01-10 04:16:00,65.0,64.1,30.17,NW,306,4.0,6.0,97,0.00,,,0.01,WeatherCatV1.02B3,2013-01-10 10:16:00,
2013-01-10 04:21:00,65.1,64.2,30.17,NNW,330,0.0,7.0,97,0.00,,,0.01,WeatherCatV1.02B3,2013-01-10 10:21:00,
2013-01-10 04:26:00,65.1,64.2,30.16,NW,305,0.0,2.0,97,0.00,,,0.01,WeatherCatV1.02B3,2013-01-10 10:26:00,
2013-01-10 04:31:00,65.1,64.2,30.16,NW,313,1.0,3.0,97,0.00,,,0.01,WeatherCatV1.02B3,2013-01-10 10:31:00,
2013-01-10 04:36:00,65.1,64.2,30.17,NW,307,0.0,5.0,97,0.00,,,0.01,WeatherCatV1.02B3,2013-01-10 10:36:00,
2013-01-10 04:41:00,65.2,64.3,30.17,NW,325,1.0,7.0,97,0.00,,,0.01,WeatherCatV1.02B3,2013-01-10 10:41:00,
2013-01-10 04:46:00,65.2,64.3,30.17,NW,326,0.0,2.0,97,0.00,,,0.01,WeatherCatV1.02B3,2013-01-10 10:46:00,
2013-01-10 04:51:00,65.2,64.3,30.16,WNW,302,0.0,2.0,97,0.00,,,0.01,WeatherCatV1.02B3,2013-01-10 10:51:00,
2013-01-10 04:56:00,65.3,64.4,30.16,NW,318,1.0,1.0,97,0.00,,,0.01,WeatherCatV1.02B3,2013-01-10 10:56:00,
2013-01-10 05:01:00,65.3,64.4,30.16,NW,307,1.0,3.0,97,0.00,,,0.01,WeatherCatV1.02B3,2013-01-10 11:01:00,
2013-01-10 05:06:00,65.3,64.4,30.15,NNE,15,1.0,2.0,97,0.00,,,0.01,WeatherCatV1.02B3,2013-01-10 11:06:00,
2013-01-10 05:11:00,65.4,64.5,30.16,WNW,302,2.0,4.0,97,0.00,,,0.01,WeatherCatV1.02B3,2013-01-10 11:11:00,
2013-01-10 05:16:00,65.4,64.5,30.16,NW,324,3.0,4.0,97,0.00,,,0.01,WeatherCatV1.02B3,2013-01-10 11:16:00,
2013-01-10 05:21:00,65.4,64.5,30.16,NW,324,0.0,1.0,97,0.00,,,0.01,WeatherCatV1.02B3,2013-01-10 11:21:00,
2013-01-10 05:26:00,65.3,64.4,30.16,WNW,302,5.0,5.0,97,0.00,,,0.01,WeatherCatV1.02B3,2013-01-10 11:26:00,
2013-01-10 05:31:00,65.4,64.5,30.16,NW,309,3.0,5.0,97,0.00,,,0.01,WeatherCatV1.02B3,2013-01-10 11:31:00,
2013-01-10 05:36:00,65.4,64.5,30.16,NW,313,0.0,6.0,97,0.00,,,0.01,WeatherCatV1.02B3,2013-01-10 11:36:00,
2013-01-10 05:41:00,65.4,64.5,30.15,West,278,0.0,3.0,97,0.00,,,0.01,WeatherCatV1.02B3,2013-01-10 11:41:00,
2013-01-10 05:46:00,65.5,64.6,30.15,NW,325,2.0,5.0,97,0.00,,,0.01,WeatherCatV1.02B3,2013-01-10 11:46:00,
2013-01-10 05:51:00,65.5,64.6,30.15,WNW,296,0.0,1.0,97,0.00,,,0.01,WeatherCatV1.02B3,2013-01-10 11:51:00,
2013-01-10 05:56:00,65.5,64.6,30.16,WNW,294,0.0,2.0,97,0.00,,,0.01,WeatherCatV1.02B3,2013-01-10 11:56:00,
2013-01-10 06:01:00,65.4,64.5,30.16,WNW,294,0.0,3.0,97,0.00,,,0.01,WeatherCatV1.02B3,2013-01-10 12:01:00,
2013-01-10 06:06:00,65.4,64.5,30.16,NNW,329,0.0,2.0,97,0.00,,,0.02,WeatherCatV1.02B3,2013-01-10 12:06:00,
2013-01-10 06:11:00,65.4,64.5,30.17,NNW,329,0.0,4.0,97,0.00,,,0.02,WeatherCatV1.02B3,2013-01-10 12:11:00,
2013-01-10 06:16:00,65.4,64.5,30.17,NNW,329,0.0,0.0,97,0.00,,,0.02,WeatherCatV1.02B3,2013-01-10 12:16:00,
2013-01-10 06:21:00,65.4,64.5,30.17,WNW,285,3.0,4.0,97,0.00,,,0.02,WeatherCatV1.02B3,2013-01-10 12:21:00,
2013-01-10 06:26:00,65.5,64.6,30.17,WSW,254,0.0,0.0,97,0.00,,,0.02,WeatherCatV1.02B3,2013-01-10 12:26:00,
2013-01-10 06:31:00,65.5,64.6,30.17,WNW,298,0.0,0.0,97,0.00,,,0.02,WeatherCatV1.02B3,2013-01-10 12:31:00,
2013-01-10 06:36:00,65.5,64.6,30.17,WNW,296,0.0,2.0,97,0.00,,,0.02,WeatherCatV1.02B3,2013-01-10 12:36:00,
2013-01-10 06:41:00,65.5,64.6,30.17,WNW,292,0.0,0.0,97,0.00,,,0.02,WeatherCatV1.02B3,2013-01-10 12:41:00,
2013-01-10 06:46:00,65.6,64.7,30.18,WNW,298,1.0,3.0,97,0.00,,,0.02,WeatherCatV1.02B3,2013-01-10 12:46:00,
2013-01-10 06:51:00,65.6,64.7,30.18,WNW,282,0.0,1.0,97,0.00,,,0.02,WeatherCatV1.02B3,2013-01-10 12:51:00,
2013-01-10 06:56:00,65.6,64.7,30.18,WNW,297,0.0,0.0,97,0.00,,,0.02,WeatherCatV1.02B3,2013-01-10 12:56:00,
2013-01-10 07:01:00,65.6,64.7,30.19,WNW,298,1.0,2.0,97,0.00,,,0.02,WeatherCatV1.02B3,2013-01-10 13:01:00,
2013-01-10 07:06:00,65.6,64.7,30.19,NW,314,1.0,1.0,97,0.00,,,0.02,WeatherCatV1.02B3,2013-01-10 13:06:00,
2013-01-10 07:11:00,65.7,64.8,30.19,WNW,284,0.0,0.0,97,0.00,,,0.02,WeatherCatV1.02B3,2013-01-10 13:11:00,
2013-01-10 07:16:00,65.7,64.8,30.19,WNW,284,0.0,0.0,97,0.00,,,0.02,WeatherCatV1.02B3,2013-01-10 13:16:00,
2013-01-10 07:21:00,65.8,64.9,30.18,WNW,296,0.0,2.0,97,0.00,,,0.02,WeatherCatV1.02B3,2013-01-10 13:21:00,
2013-01-10 07:26:00,65.8,64.9,30.17,WNW,295,0.0,0.0,97,0.00,,,0.02,WeatherCatV1.02B3,2013-01-10 13:26:00,
2013-01-10 07:31:00,65.9,65.0,30.16,WNW,297,6.0,7.0,97,0.00,,,0.02,WeatherCatV1.02B3,2013-01-10 13:31:00,
2013-01-10 07:36:00,66.1,65.2,30.16,West,262,0.0,1.0,97,0.00,,,0.02,WeatherCatV1.02B3,2013-01-10 13:36:00,
2013-01-10 07:41:00,66.2,65.3,30.16,NNW,336,0.0,5.0,97,0.00,,,0.02,WeatherCatV1.02B3,2013-01-10 13:41:00,
2013-01-10 07:46:00,66.2,65.3,30.17,WNW,291,1.0,6.0,97,0.00,,,0.02,WeatherCatV1.02B3,2013-01-10 13:46:00,
2013-01-10 07:51:00,66.2,65.3,30.17,NW,322,0.0,3.0,97,0.00,,,0.02,WeatherCatV1.02B3,2013-01-10 13:51:00,
2013-01-10 07:56:00,66.3,65.1,30.17,WNW,296,0.0,1.0,96,0.00,,,0.02,WeatherCatV1.02B3,2013-01-10 13:56:00,
2013-01-10 08:01:00,66.4,65.5,30.17,West,271,1.0,3.0,97,0.00,,,0.02,WeatherCatV1.02B3,2013-01-10 14:01:00,
2013-01-10 08:06:00,66.4,65.5,30.17,WNW,289,2.0,2.0,97,0.00,,,0.02,WeatherCatV1.02B3,2013-01-10 14:06:00,
2013-01-10 08:11:00,66.4,65.5,30.17,WNW,288,0.0,10.0,97,0.00,,,0.02,WeatherCatV1.02B3,2013-01-10 14:11:00,
2013-01-10 08:16:00,66.5,65.3,30.17,NW,308,4.0,7.0,96,0.00,,,0.02,WeatherCatV1.02B3,2013-01-10 14:16:00,
2013-01-10 08:21:00,66.5,65.3,30.17,NNW,342,0.0,4.0,96,0.00,,,0.02,WeatherCatV1.02B3,2013-01-10 14:21:00,
2013-01-10 08:26:00,66.6,65.4,30.17,WNW,300,2.0,9.0,96,0.00,,,0.02,WeatherCatV1.02B3,2013-01-10 14:26:00,
2013-01-10 08:31:00,66.7,65.5,30.18,WNW,299,2.0,9.0,96,0.00,,,0.02,WeatherCatV1.02B3,2013-01-10 14:31:00,
2013-01-10 08:36:00,66.8,65.6,30.18,WNW,298,0.0,2.0,96,0.00,,,0.02,WeatherCatV1.02B3,2013-01-10 14:36:00,
2013-01-10 08:41:00,66.9,65.7,30.18,WNW,283,1.0,4.0,96,0.00,,,0.02,WeatherCatV1.02B3,2013-01-10 14:41:00,
2013-01-10 08:46:00,66.9,65.4,30.17,NW,311,0.0,5.0,95,0.00,,,0.02,WeatherCatV1.02B3,2013-01-10 14:46:00,
2013-01-10 08:51:00,66.9,65.4,30.18,NW,315,3.0,3.0,95,0.00,,,0.02,WeatherCatV1.02B3,2013-01-10 14:51:00,
2013-01-10 08:56:00,67.0,65.5,30.18,West,270,0.0,4.0,95,0.00,,,0.02,WeatherCatV1.02B3,2013-01-10 14:56:00,
2013-01-10 09:01:00,67.1,65.6,30.18,NW,323,1.0,6.0,95,0.00,,,0.02,WeatherCatV1.02B3,2013-01-10 15:01:00,
2013-01-10 09:06:00,67.2,65.4,30.19,NW,317,0.0,4.0,94,0.00,,,0.02,WeatherCatV1.02B3,2013-01-10 15:06:00,
2013-01-10 09:11:00,67.3,65.5,30.19,North,355,0.0,8.0,94,0.00,,,0.02,WeatherCatV1.02B3,2013-01-10 15:11:00,
2013-01-10 09:16:00,67.4,65.6,30.20,NW,305,5.0,5.0,94,0.00,,,0.02,WeatherCatV1.02B3,2013-01-10 15:16:00,
2013-01-10 09:21:00,67.5,65.7,30.20,NNW,336,3.0,5.0,94,0.00,,,0.02,WeatherCatV1.02B3,2013-01-10 15:21:00,
2013-01-10 09:26:00,67.6,65.5,30.20,NNW,331,4.0,7.0,93,0.00,,,0.02,WeatherCatV1.02B3,2013-01-10 15:26:00,
2013-01-10 09:31:00,67.7,65.6,30.21,NW,304,2.0,8.0,93,0.00,,,0.02,WeatherCatV1.02B3,2013-01-10 15:31:00,
2013-01-10 09:36:00,67.7,65.6,30.22,WNW,296,0.0,3.0,93,0.00,,,0.02,WeatherCatV1.02B3,2013-01-10 15:36:00,
2013-01-10 09:41:00,67.7,65.6,30.22,WNW,287,0.0,5.0,93,0.00,,,0.02,WeatherCatV1.02B3,2013-01-10 15:41:00,
2013-01-10 09:46:00,67.7,65.6,30.22,NNW,327,0.0,3.0,93,0.00,,,0.02,WeatherCatV1.02B3,2013-01-10 15:46:00,
2013-01-10 09:51:00,67.6,65.5,30.23,NW,319,0.0,4.0,93,0.00,,,0.02,WeatherCatV1.02B3,2013-01-10 15:51:00,
2013-01-10 09:56:00,67.6,65.5,30.23,NW,323,0.0,0.0,93,0.00,,,0.02,WeatherCatV1.02B3,2013-01-10 15:56:00,
2013-01-10 10:01:00,67.5,65.4,30.23,NW,325,0.0,0.0,93,0.00,,,0.02,WeatherCatV1.02B3,2013-01-10 16:01:00,
2013-01-10 10:06:00,67.4,65.6,30.23,NW,325,0.0,2.0,94,0.00,,,0.03,WeatherCatV1.02B3,2013-01-10 16:06:00,
2013-01-10 10:11:00,67.3,65.5,30.23,North,355,0.0,1.0,94,0.09,,,0.04,WeatherCatV1.02B3,2013-01-10 16:11:00,
2013-01-10 10:16:00,67.2,65.4,30.23,North,355,0.0,0.0,94,0.11,,,0.05,WeatherCatV1.02B3,2013-01-10 16:16:00,
2013-01-10 10:21:00,67.1,65.3,30.23,North,355,0.0,0.0,94,0.19,,,0.07,WeatherCatV1.02B3,2013-01-10 16:21:00,
2013-01-10 10:26:00,67.1,65.3,30.23,North,355,0.0,1.0,94,0.18,,,0.09,WeatherCatV1.02B3,2013-01-10 16:26:00,
2013-01-10 10:31:00,66.9,65.4,30.23,North,355,0.0,0.0,95,0.16,,,0.10,WeatherCatV1.02B3,2013-01-10 16:31:00,
2013-01-10 10:36:00,66.8,65.3,30.23,North,355,0.0,0.0,95,0.10,,,0.11,WeatherCatV1.02B3,2013-01-10 16:36:00,
2013-01-10 10:41:00,66.7,65.2,30.22,North,355,1.0,1.0,95,0.13,,,0.12,WeatherCatV1.02B3,2013-01-10 16:41:00,
2013-01-10 10:46:00,66.3,64.8,30.22,ENE,70,0.0,1.0,95,0.07,,,0.12,WeatherCatV1.02B3,2013-01-10 16:46:00,
2013-01-10 10:51:00,65.9,64.1,30.21,ENE,70,0.0,0.0,94,0.07,,,0.13,WeatherCatV1.02B3,2013-01-10 16:51:00,
2013-01-10 10:56:00,65.6,64.1,30.21,NE,41,1.0,3.0,95,0.12,,,0.14,WeatherCatV1.02B3,2013-01-10 16:56:00,
2013-01-10 11:01:00,65.2,63.7,30.20,NE,41,0.0,0.0,95,0.07,,,0.15,WeatherCatV1.02B3,2013-01-10 17:01:00,
2013-01-10 11:06:00,65.0,63.5,30.20,NE,41,0.0,0.0,95,0.10,,,0.16,WeatherCatV1.02B3,2013-01-10 17:06:00,
2013-01-10 11:11:00,64.9,63.4,30.20,NE,41,0.0,0.0,95,0.10,,,0.16,WeatherCatV1.02B3,2013-01-10 17:11:00,
2013-01-10 11:16:00,64.8,63.3,30.19,NE,41,0.0,0.0,95,0.07,,,0.17,WeatherCatV1.02B3,2013-01-10 17:16:00,
2013-01-10 11:21:00,64.7,63.2,30.19,NE,41,0.0,0.0,95,0.10,,,0.18,WeatherCatV1.02B3,2013-01-10 17:21:00,
2013-01-10 11:26:00,64.7,63.2,30.18,NE,41,0.0,0.0,95,0.10,,,0.18,WeatherCatV1.02B3,2013-01-10 17:26:00,
2013-01-10 11:31:00,64.6,63.1,30.18,NE,41,0.0,0.0,95,0.06,,,0.19,WeatherCatV1.02B3,2013-01-10 17:31:00,
2013-01-10 11:36:00,64.6,63.1,30.18,NE,41,0.0,0.0,95,0.20,,,0.20,WeatherCatV1.02B3,2013-01-10 17:36:00,
2013-01-10 11:41:00,64.6,63.1,30.18,NE,41,0.0,0.0,95,0.10,,,0.21,WeatherCatV1.02B3,2013-01-10 17:41:00,
2013-01-10 11:46:00,64.5,63.0,30.17,NE,41,0.0,0.0,95,0.15,,,0.22,WeatherCatV1.02B3,2013-01-10 17:46:00,
2013-01-10 11:51:00,64.5,63.0,30.17,NE,41,0.0,0.0,95,0.12,,,0.23,WeatherCatV1.02B3,2013-01-10 17:51:00,
2013-01-10 11:56:00,64.5,63.0,30.17,NE,41,0.0,0.0,95,0.08,,,0.24,WeatherCatV1.02B3,2013-01-10 17:56:00,
2013-01-10 12:01:00,64.5,63.3,30.16,NE,41,0.0,0.0,96,0.08,,,0.24,WeatherCatV1.02B3,2013-01-10 18:01:00,
2013-01-10 12:06:00,64.4,63.2,30.16,West,275,0.0,2.0,96,0.06,,,0.24,WeatherCatV1.02B3,2013-01-10 18:06:00,
2013-01-10 12:11:00,64.4,63.2,30.15,West,275,0.0,0.0,96,0.04,,,0.24,WeatherCatV1.02B3,2013-01-10 18:11:00,
2013-01-10 12:16:00,64.3,63.1,30.14,South,191,0.0,1.0,96,0.00,,,0.24,WeatherCatV1.02B3,2013-01-10 18:16:00,
2013-01-10 12:21:00,64.2,63.0,30.14,SW,218,1.0,3.0,96,0.00,,,0.25,WeatherCatV1.02B3,2013-01-10 18:21:00,
2013-01-10 12:26:00,64.1,62.9,30.14,SW,218,0.0,1.0,96,0.08,,,0.26,WeatherCatV1.02B3,2013-01-10 18:26:00,
2013-01-10 12:31:00,64.1,62.9,30.13,SW,218,0.0,0.0,96,0.08,,,0.26,WeatherCatV1.02B3,2013-01-10 18:31:00,
2013-01-10 12:36:00,64.2,63.0,30.13,SW,218,0.0,0.0,96,0.08,,,0.27,WeatherCatV1.02B3,2013-01-10 18:36:00,
2013-01-10 12:41:00,64.3,63.1,30.12,SW,218,0.0,2.0,96,0.10,,,0.28,WeatherCatV1.02B3,2013-01-10 18:41:00,
2013-01-10 12:46:00,64.7,63.5,30.12,WNW,300,0.0,1.0,96,0.07,,,0.28,WeatherCatV1.02B3,2013-01-10 18:46:00,
2013-01-10 12:51:00,65.0,63.8,30.11,West,277,1.0,2.0,96,0.04,,,0.28,WeatherCatV1.02B3,2013-01-10 18:51:00,
2013-01-10 12:56:00,65.1,63.9,30.12,WNW,290,0.0,2.0,96,0.04,,,0.29,WeatherCatV1.02B3,2013-01-10 18:56:00,
2013-01-10 13:01:00,65.5,64.3,30.12,NW,319,0.0,4.0,96,0.04,,,0.29,WeatherCatV1.02B3,2013-01-10 19:01:00,
2013-01-10 13:06:00,66.0,65.1,30.11,WNW,288,4.0,5.0,97,0.04,,,0.29,WeatherCatV1.02B3,2013-01-10 19:06:00,
2013-01-10 13:11:00,66.3,65.1,30.11,NW,310,5.0,5.0,96,0.04,,,0.30,WeatherCatV1.02B3,2013-01-10 19:11:00,
2013-01-10 13:16:00,66.4,65.5,30.11,NNW,329,7.0,8.0,97,0.09,,,0.31,WeatherCatV1.02B3,2013-01-10 19:16:00,
2013-01-10 13:21:00,66.5,65.3,30.10,West,275,4.0,6.0,96,0.15,,,0.32,WeatherCatV1.02B3,2013-01-10 19:21:00,
2013-01-10 13:26:00,66.6,65.4,30.10,WNW,286,2.0,5.0,96,0.27,,,0.34,WeatherCatV1.02B3,2013-01-10 19:26:00,
2013-01-10 13:31:00,66.5,65.3,30.09,West,279,3.0,11.0,96,0.14,,,0.35,WeatherCatV1.02B3,2013-01-10 19:31:00,
2013-01-10 13:36:00,66.5,65.3,30.08,West,279,4.0,10.0,96,0.12,,,0.36,WeatherCatV1.02B3,2013-01-10 19:36:00,
2013-01-10 13:41:00,66.5,65.3,30.08,WNW,301,5.0,12.0,96,0.07,,,0.36,WeatherCatV1.02B3,2013-01-10 19:41:00,
2013-01-10 13:46:00,66.5,65.3,30.08,NNW,338,6.0,9.0,96,0.07,,,0.37,WeatherCatV1.02B3,2013-01-10 19:46:00,
2013-01-10 13:51:00,66.5,65.3,30.07,WNW,300,4.0,6.0,96,0.06,,,0.37,WeatherCatV1.02B3,2013-01-10 19:51:00,
2013-01-10 13:56:00,66.4,65.2,30.06,WNW,301,0.0,10.0,96,0.05,,,0.38,WeatherCatV1.02B3,2013-01-10 19:56:00,
2013-01-10 14:01:00,66.3,65.1,30.05,NW,315,0.0,12.0,96,0.05,,,0.38,WeatherCatV1.02B3,2013-01-10 20:01:00,
2013-01-10 14:06:00,66.2,65.0,30.04,NW,311,2.0,13.0,96,0.05,,,0.38,WeatherCatV1.02B3,2013-01-10 20:06:00,
2013-01-10 14:11:00,66.2,65.0,30.03,NW,314,3.0,6.0,96,0.00,,,0.38,WeatherCatV1.02B3,2013-01-10 20:11:00,
2013-01-10 14:16:00,66.1,64.9,30.03,NW,319,4.0,9.0,96,0.00,,,0.39,WeatherCatV1.02B3,2013-01-10 20:16:00,
2013-01-10 14:21:00,66.1,64.9,30.02,NNW,329,4.0,13.0,96,0.00,,,0.39,WeatherCatV1.02B3,2013-01-10 20:21:00,
2013-01-10 14:26:00,66.1,64.9,30.02,WNW,297,7.0,10.0,96,0.00,,,0.39,WeatherCatV1.02B3,2013-01-10 20:26:00,
2013-01-10 14:31:00,66.1,64.9,30.03,NW,306,5.0,10.0,96,0.00,,,0.40,WeatherCatV1.02B3,2013-01-10 20:31:00,
2013-01-10 14:36:00,66.0,64.5,30.04,NNW,336,7.0,10.0,95,0.00,,,0.40,WeatherCatV1.02B3,2013-01-10 20:36:00,
2013-01-10 14:41:00,66.1,64.6,30.03,NW,306,5.0,7.0,95,0.00,,,0.40,WeatherCatV1.02B3,2013-01-10 20:41:00,
2013-01-10 14:46:00,66.0,64.5,30.01,WSW,246,7.0,11.0,95,0.00,,,0.40,WeatherCatV1.02B3,2013-01-10 20:46:00,
2013-01-10 14:51:00,66.1,64.6,30.00,WNW,286,6.0,7.0,95,0.00,,,0.40,WeatherCatV1.02B3,2013-01-10 20:51:00,
2013-01-10 14:56:00,66.1,64.6,30.00,WNW,290,2.0,9.0,95,0.00,,,0.41,WeatherCatV1.02B3,2013-01-10 20:56:00,
2013-01-10 15:01:00,66.0,64.5,30.00,WNW,290,4.0,10.0,95,0.00,,,0.41,WeatherCatV1.02B3,2013-01-10 21:01:00,
2013-01-10 15:06:00,66.0,64.5,30.00,WNW,301,3.0,12.0,95,0.00,,,0.41,WeatherCatV1.02B3,2013-01-10 21:06:00,
2013-01-10 15:11:00,66.0,64.5,29.99,WNW,302,7.0,7.0,95,0.00,,,0.41,WeatherCatV1.02B3,2013-01-10 21:11:00,
2013-01-10 15:16:00,66.0,64.5,29.97,West,261,8.0,10.0,95,0.00,,,0.41,WeatherCatV1.02B3,2013-01-10 21:16:00,
2013-01-10 15:21:00,66.0,64.5,29.97,West,263,7.0,7.0,95,0.00,,,0.41,WeatherCatV1.02B3,2013-01-10 21:21:00,
2013-01-10 15:26:00,66.0,64.5,29.93,NNE,22,4.0,6.0,95,0.00,,,0.42,WeatherCatV1.02B3,2013-01-10 21:26:00,
2013-01-10 15:31:00,66.0,64.5,29.97,WNW,292,3.0,8.0,95,0.00,,,0.42,WeatherCatV1.02B3,2013-01-10 21:31:00,
2013-01-10 15:36:00,65.9,64.4,29.99,WNW,303,1.0,9.0,95,0.00,,,0.42,WeatherCatV1.02B3,2013-01-10 21:36:00,
2013-01-10 15:41:00,65.9,64.1,29.99,NW,313,1.0,4.0,94,0.00,,,0.42,WeatherCatV1.02B3,2013-01-10 21:41:00,
2013-01-10 15:46:00,65.8,64.0,29.98,WSW,252,0.0,4.0,94,0.00,,,0.42,WeatherCatV1.02B3,2013-01-10 21:46:00,
2013-01-10 15:51:00,65.7,63.9,29.97,West,268,0.0,5.0,94,0.00,,,0.42,WeatherCatV1.02B3,2013-01-10 21:51:00,
2013-01-10 15:56:00,65.5,63.7,29.98,NNW,336,2.0,7.0,94,0.00,,,0.42,WeatherCatV1.02B3,2013-01-10 21:56:00,
2013-01-10 16:01:00,65.5,63.7,29.98,WNW,282,0.0,5.0,94,0.00,,,0.42,WeatherCatV1.02B3,2013-01-10 22:01:00,
2013-01-10 16:06:00,65.4,63.6,29.97,WSW,250,4.0,6.0,94,0.00,,,0.42,WeatherCatV1.02B3,2013-01-10 22:06:00,
2013-01-10 16:11:00,65.3,63.5,29.97,NNW,334,1.0,4.0,94,0.00,,,0.42,WeatherCatV1.02B3,2013-01-10 22:11:00,
2013-01-10 16:16:00,65.3,63.2,29.99,North,355,1.0,1.0,93,0.00,,,0.42,WeatherCatV1.02B3,2013-01-10 22:16:00,
2013-01-10 16:21:00,65.3,63.2,29.99,NNW,332,0.0,2.0,93,0.00,,,0.42,WeatherCatV1.02B3,2013-01-10 22:21:00,
2013-01-10 16:26:00,65.1,63.0,30.00,NW,311,0.0,2.0,93,0.00,,,0.42,WeatherCatV1.02B3,2013-01-10 22:26:00,
2013-01-10 16:31:00,65.0,62.9,30.01,NW,323,0.0,4.0,93,0.00,,,0.42,WeatherCatV1.02B3,2013-01-10 22:31:00,
2013-01-10 16:36:00,64.9,62.8,30.00,NNW,327,0.0,5.0,93,0.00,,,0.42,WeatherCatV1.02B3,2013-01-10 22:36:00,
2013-01-10 16:41:00,64.8,62.7,30.01,NNW,338,3.0,4.0,93,0.00,,,0.42,WeatherCatV1.02B3,2013-01-10 22:41:00,
2013-01-10 16:46:00,64.7,62.6,30.01,NNW,327,0.0,1.0,93,0.00,,,0.42,WeatherCatV1.02B3,2013-01-10 22:46:00,
2013-01-10 16:51:00,64.5,62.4,30.02,NW,319,0.0,5.0,93,0.00,,,0.42,WeatherCatV1.02B3,2013-01-10 22:51:00,
2013-01-10 16:56:00,64.4,62.3,30.02,NNW,327,1.0,1.0,93,0.00,,,0.42,WeatherCatV1.02B3,2013-01-10 22:56:00,
2013-01-10 17:01:00,64.3,62.2,30.02,NW,326,0.0,1.0,93,0.00,,,0.42,WeatherCatV1.02B3,2013-01-10 23:01:00,
2013-01-10 17:06:00,64.2,62.1,30.02,NW,313,3.0,3.0,93,0.00,,,0.42,WeatherCatV1.02B3,2013-01-10 23:06:00,
2013-01-10 17:11:00,64.1,62.0,30.02,NW,321,1.0,1.0,93,0.00,,,0.42,WeatherCatV1.02B3,2013-01-10 23:11:00,
2013-01-10 17:16:00,64.0,61.9,30.02,NNW,335,0.0,1.0,93,0.00,,,0.42,WeatherCatV1.02B3,2013-01-10 23:16:00,
2013-01-10 17:21:00,63.9,61.8,30.02,WNW,293,0.0,4.0,93,0.00,,,0.42,WeatherCatV1.02B3,2013-01-10 23:21:00,
2013-01-10 17:26:00,63.8,61.7,30.02,NNW,332,0.0,2.0,93,0.00,,,0.42,WeatherCatV1.02B3,2013-01-10 23:26:00,
2013-01-10 17:31:00,63.7,61.6,30.02,NNW,331,0.0,1.0,93,0.00,,,0.42,WeatherCatV1.02B3,2013-01-10 23:31:00,
2013-01-10 17:36:00,63.6,61.5,30.02,NNW,331,0.0,2.0,93,0.00,,,0.42,WeatherCatV1.02B3,2013-01-10 23:36:00,
2013-01-10 17:41:00,63.5,61.4,30.03,NW,324,0.0,0.0,93,0.00,,,0.42,WeatherCatV1.02B3,2013-01-10 23:41:00,
2013-01-10 17:46:00,63.4,61.3,30.03,NW,324,0.0,3.0,93,0.00,,,0.42,WeatherCatV1.02B3,2013-01-10 23:46:00,
2013-01-10 17:51:00,63.4,61.3,30.03,NW,315,3.0,4.0,93,0.00,,,0.42,WeatherCatV1.02B3,2013-01-10 23:51:00,
2013-01-10 17:56:00,63.3,61.5,30.03,NW,316,2.0,3.0,94,0.00,,,0.42,WeatherCatV1.02B3,2013-01-10 23:56:00,
2013-01-10 18:01:00,63.3,61.5,30.03,NW,313,2.0,4.0,94,0.00,,,0.42,WeatherCatV1.02B3,2013-01-11 00:01:00,
2013-01-10 18:06:00,63.2,61.4,30.03,NNW,342,0.0,3.0,94,0.00,,,0.42,WeatherCatV1.02B3,2013-01-11 00:06:00,
2013-01-10 18:11:00,63.1,61.3,30.02,WNW,290,0.0,5.0,94,0.00,,,0.42,WeatherCatV1.02B3,2013-01-11 00:11:00,
2013-01-10 18:16:00,63.0,61.2,30.02,NW,319,2.0,3.0,94,0.00,,,0.42,WeatherCatV1.02B3,2013-01-11 00:16:00,
2013-01-10 18:21:00,62.9,61.1,30.02,NNE,12,0.0,2.0,94,0.00,,,0.42,WeatherCatV1.02B3,2013-01-11 00:21:00,
2013-01-10 18:26:00,62.8,61.0,30.02,NW,315,0.0,5.0,94,0.00,,,0.42,WeatherCatV1.02B3,2013-01-11 00:26:00,
2013-01-10 18:31:00,62.7,60.9,30.02,NNW,342,2.0,6.0,94,0.00,,,0.42,WeatherCatV1.02B3,2013-01-11 00:31:00,
2013-01-10 18:36:00,62.6,60.8,30.02,WNW,294,0.0,3.0,94,0.00,,,0.42,WeatherCatV1.02B3,2013-01-11 00:36:00,
2013-01-10 18:41:00,62.5,60.7,30.02,NNW,338,0.0,1.0,94,0.00,,,0.42,WeatherCatV1.02B3,2013-01-11 00:41:00,
2013-01-10 18:46:00,62.5,60.7,30.02,NNW,338,0.0,3.0,94,0.00,,,0.42,WeatherCatV1.02B3,2013-01-11 00:46:00,
2013-01-10 18:51:00,62.3,60.5,30.02,NNW,348,0.0,1.0,94,0.00,,,0.42,WeatherCatV1.02B3,2013-01-11 00:51:00,
2013-01-10 18:56:00,62.3,60.5,30.02,NW,316,1.0,4.0,94,0.00,,,0.42,WeatherCatV1.02B3,2013-01-11 00:56:00,
2013-01-10 19:01:00,62.2,60.4,30.02,NW,316,0.0,0.0,94,0.00,,,0.42,WeatherCatV1.02B3,2013-01-11 01:01:00,
2013-01-10 19:06:00,62.1,60.3,30.01,NW,321,1.0,1.0,94,0.00,,,0.42,WeatherCatV1.02B3,2013-01-11 01:06:00,
2013-01-10 19:11:00,62.0,60.2,30.01,NW,321,0.0,1.0,94,0.00,,,0.42,WeatherCatV1.02B3,2013-01-11 01:11:00,
2013-01-10 19:16:00,61.9,60.2,30.02,North,349,0.0,0.0,94,0.00,,,0.42,WeatherCatV1.02B3,2013-01-11 01:16:00,
2013-01-10 19:21:00,61.8,60.1,30.02,NNW,336,2.0,2.0,94,0.00,,,0.42,WeatherCatV1.02B3,2013-01-11 01:21:00,
2013-01-10 19:26:00,61.7,60.0,30.02,NNW,336,0.0,0.0,94,0.00,,,0.42,WeatherCatV1.02B3,2013-01-11 01:26:00,
2013-01-10 19:31:00,61.7,60.2,30.02,NNW,336,0.0,1.0,95,0.00,,,0.42,WeatherCatV1.02B3,2013-01-11 01:31:00,
2013-01-10 19:36:00,61.6,60.2,30.03,NNW,336,0.0,1.0,95,0.00,,,0.42,WeatherCatV1.02B3,2013-01-11 01:36:00,
2013-01-10 19:41:00,61.6,60.2,30.02,NNW,336,0.0,0.0,95,0.00,,,0.42,WeatherCatV1.02B3,2013-01-11 01:41:00,
2013-01-10 19:46:00,61.5,60.1,30.03,NW,317,0.0,0.0,95,0.00,,,0.42,WeatherCatV1.02B3,2013-01-11 01:46:00,
2013-01-10 19:51:00,61.4,60.0,30.02,NW,317,0.0,1.0,95,0.00,,,0.42,WeatherCatV1.02B3,2013-01-11 01:51:00,
2013-01-10 19:56:00,61.3,59.9,30.03,NW,317,0.0,0.0,95,0.00,,,0.42,WeatherCatV1.02B3,2013-01-11 01:56:00,
2013-01-10 20:01:00,61.3,59.9,30.03,NW,317,0.0,0.0,95,0.00,,,0.42,WeatherCatV1.02B3,2013-01-11 02:01:00,
2013-01-10 20:06:00,61.2,59.8,30.03,NW,318,0.0,4.0,95,0.00,,,0.42,WeatherCatV1.02B3,2013-01-11 02:06:00,
2013-01-10 20:11:00,61.2,59.8,30.03,NW,318,0.0,0.0,95,0.00,,,0.42,WeatherCatV1.02B3,2013-01-11 02:11:00,
2013-01-10 20:16:00,61.1,59.7,30.04,NW,316,0.0,2.0,95,0.00,,,0.42,WeatherCatV1.02B3,2013-01-11 02:16:00,
2013-01-10 20:21:00,61.1,59.7,30.04,NW,316,2.0,2.0,95,0.00,,,0.42,WeatherCatV1.02B3,2013-01-11 02:21:00,
2013-01-10 20:26:00,61.1,59.7,30.04,NW,316,1.0,1.0,95,0.00,,,0.42,WeatherCatV1.02B3,2013-01-11 02:26:00,
2013-01-10 20:31:00,61.1,59.7,30.04,NNW,330,0.0,0.0,95,0.00,,,0.42,WeatherCatV1.02B3,2013-01-11 02:31:00,
2013-01-10 20:36:00,61.0,59.6,30.05,NNW,329,0.0,1.0,95,0.00,,,0.42,WeatherCatV1.02B3,2013-01-11 02:36:00,
2013-01-10 20:41:00,61.0,59.6,30.04,WNW,286,0.0,4.0,95,0.00,,,0.42,WeatherCatV1.02B3,2013-01-11 02:41:00,
2013-01-10 20:46:00,61.0,59.6,30.04,NW,314,0.0,2.0,95,0.00,,,0.42,WeatherCatV1.02B3,2013-01-11 02:46:00,
2013-01-10 20:51:00,60.9,59.5,30.04,North,355,0.0,2.0,95,0.00,,,0.42,WeatherCatV1.02B3,2013-01-11 02:51:00,
2013-01-10 20:56:00,60.9,59.5,30.04,NNW,333,1.0,1.0,95,0.00,,,0.42,WeatherCatV1.02B3,2013-01-11 02:56:00,
2013-01-10 21:01:00,60.9,59.5,30.04,NW,310,0.0,1.0,95,0.00,,,0.42,WeatherCatV1.02B3,2013-01-11 03:01:00,
2013-01-10 21:06:00,60.9,59.7,30.05,NW,309,0.0,1.0,96,0.00,,,0.42,WeatherCatV1.02B3,2013-01-11 03:06:00,
2013-01-10 21:11:00,60.9,59.5,30.04,NW,311,0.0,2.0,95,0.00,,,0.42,WeatherCatV1.02B3,2013-01-11 03:11:00,
2013-01-10 21:16:00,60.8,59.4,30.04,NW,311,0.0,4.0,95,0.00,,,0.42,WeatherCatV1.02B3,2013-01-11 03:16:00,
2013-01-10 21:21:00,60.8,59.4,30.05,NW,311,0.0,2.0,95,0.00,,,0.42,WeatherCatV1.02B3,2013-01-11 03:21:00,
2013-01-10 21:26:00,60.7,59.3,30.06,NNW,346,2.0,3.0,95,0.00,,,0.42,WeatherCatV1.02B3,2013-01-11 03:26:00,
2013-01-10 21:31:00,60.7,59.3,30.06,WNW,301,3.0,3.0,95,0.00,,,0.42,WeatherCatV1.02B3,2013-01-11 03:31:00,
2013-01-10 21:36:00,60.7,59.5,30.05,NW,322,0.0,0.0,96,0.00,,,0.42,WeatherCatV1.02B3,2013-01-11 03:36:00,
2013-01-10 21:41:00,60.7,59.3,30.06,NW,316,2.0,3.0,95,0.00,,,0.42,WeatherCatV1.02B3,2013-01-11 03:41:00,
2013-01-10 21:46:00,60.7,59.5,30.07,WNW,296,0.0,2.0,96,0.00,,,0.42,WeatherCatV1.02B3,2013-01-11 03:46:00,
2013-01-10 21:51:00,60.8,59.7,30.08,WNW,296,1.0,1.0,96,0.00,,,0.42,WeatherCatV1.02B3,2013-01-11 03:51:00,
2013-01-10 21:56:00,60.9,59.7,30.07,NW,313,0.0,1.0,96,0.00,,,0.42,WeatherCatV1.02B3,2013-01-11 03:56:00,
2013-01-10 22:01:00,61.0,59.8,30.08,NNW,336,0.0,4.0,96,0.00,,,0.42,WeatherCatV1.02B3,2013-01-11 04:01:00,
2013-01-10 22:06:00,61.1,59.9,30.08,NE,38,0.0,6.0,96,0.00,,,0.42,WeatherCatV1.02B3,2013-01-11 04:06:00,
2013-01-10 22:11:00,61.1,59.9,30.08,NW,306,1.0,4.0,96,0.00,,,0.42,WeatherCatV1.02B3,2013-01-11 04:11:00,
2013-01-10 22:16:00,61.2,60.0,30.08,NNW,344,0.0,2.0,96,0.00,,,0.42,WeatherCatV1.02B3,2013-01-11 04:16:00,
2013-01-10 22:21:00,61.2,60.0,30.08,NNW,327,0.0,3.0,96,0.00,,,0.42,WeatherCatV1.02B3,2013-01-11 04:21:00,
2013-01-10 22:26:00,61.3,60.1,30.08,NNW,331,3.0,8.0,96,0.00,,,0.42,WeatherCatV1.02B3,2013-01-11 04:26:00,
2013-01-10 22:31:00,61.3,60.1,30.08,NNW,329,2.0,4.0,96,0.00,,,0.42,WeatherCatV1.02B3,2013-01-11 04:31:00,
2013-01-10 22:36:00,61.4,60.2,30.08,NNW,336,1.0,3.0,96,0.00,,,0.42,WeatherCatV1.02B3,2013-01-11 04:36:00,
2013-01-10 22:41:00,61.4,60.2,30.08,NNW,328,0.0,4.0,96,0.00,,,0.42,WeatherCatV1.02B3,2013-01-11 04:41:00,
2013-01-10 22:46:00,61.5,60.3,30.08,NW,312,0.0,1.0,96,0.00,,,0.42,WeatherCatV1.02B3,2013-01-11 04:46:00,
2013-01-10 22:51:00,61.5,60.3,30.08,NW,315,0.0,4.0,96,0.00,,,0.42,WeatherCatV1.02B3,2013-01-11 04:51:00,
2013-01-10 22:56:00,61.5,60.3,30.08,NW,309,3.0,4.0,96,0.00,,,0.42,WeatherCatV1.02B3,2013-01-11 04:56:00,
2013-01-10 23:00:00,61.5,60.3,30.08,NW,323,0.0,1.0,96,0.00,,,0.42,WeatherCatV1.02B3,2013-01-11 05:00:00,
2013-01-10 23:01:00,61.5,60.3,30.08,NW,323,0.0,1.0,96,0.00,,,0.42,WeatherCatV1.02B3,2013-01-11 05:01:00,
2013-01-10 23:02:00,61.6,60.4,30.08,NNW,329,0.0,2.0,96,0.00,,,0.42,WeatherCatV1.02B3,2013-01-11 05:02:00,
2013-01-10 23:07:00,61.6,60.4,30.08,NW,308,0.0,1.0,96,0.00,,,0.42,WeatherCatV1.02B3,2013-01-11 05:07:00,
2013-01-10 23:12:00,61.6,60.4,30.08,NNW,327,3.0,3.0,96,0.00,,,0.42,WeatherCatV1.02B3,2013-01-11 05:12:00,
2013-01-10 23:17:00,61.6,60.4,30.08,NW,305,0.0,1.0,96,0.00,,,0.42,WeatherCatV1.02B3,2013-01-11 05:17:00,
2013-01-10 23:22:00,61.6,60.4,30.08,NNW,327,0.0,4.0,96,0.00,,,0.42,WeatherCatV1.02B3,2013-01-11 05:22:00,
2013-01-10 23:27:00,61.6,60.4,30.08,NW,326,0.0,3.0,96,0.00,,,0.42,WeatherCatV1.02B3,2013-01-11 05:27:00,
2013-01-10 23:32:00,61.6,60.4,30.08,North,5,0.0,2.0,96,0.00,,,0.42,WeatherCatV1.02B3,2013-01-11 05:32:00,
2013-01-10 23:37:00,61.7,60.5,30.08,North,350,1.0,3.0,96,0.00,,,0.42,WeatherCatV1.02B3,2013-01-11 05:37:00,
2013-01-10 23:42:00,61.7,60.5,30.08,WNW,286,0.0,3.0,96,0.00,,,0.42,WeatherCatV1.02B3,2013-01-11 05:42:00,
2013-01-10 23:47:00,61.8,60.6,30.08,NW,322,0.0,1.0,96,0.00,,,0.42,WeatherCatV1.02B3,2013-01-11 05:47:00,
2013-01-10 23:52:00,61.8,60.6,30.08,NNE,26,1.0,2.0,96,0.00,,,0.42,WeatherCatV1.02B3,2013-01-11 05:52:00,
2013-01-10 23:57:00,61.8,60.6,30.08,NW,308,5.0,5.0,96,0.00,,,0.42,WeatherCatV1.02B3,2013-01-11 05:57:00,